User: anonymous   Login
Location: Waldport
(44.4270°N, 124.0680°W)
Time: 08:42:12
(UTC-07:00)
Language:

Cosmos 1023 Rocket - Orbit

View from above orbital plane
View from above orbital plane
View from above satellite
View from above satellite

Ground track
Ground track

The orbit data is extracted from the following two-line orbital elements,

1 10962U 78063B   15114.86333503  .00000444  00000-0  14608-3 0  9999
2 10962 074.0808 226.6320 0025933 329.4383 030.5261 14.40885057932892
Epoch (UTC): 24 April 2015 20:43:12
Eccentricity: 0.0025933
inclination: 74.0808°
perigee height: 737 km
apogee height: 774 km
right ascension of ascending node: 226.6320°
argument of perigee: 329.4383°
revolutions per day: 14.40885057
mean anomaly at epoch: 30.5261°
orbit number at epoch: 93289

The dashed part of the orbit path shows where the satellite is in the earth's shadow,  

DLR